Time,TemperatureF,DewpointF,PressureIn,WindDirection,WindDirectionDegrees,WindSpeedMPH,WindSpeedGustMPH,Humidity,HourlyPrecipIn,Conditions,Clouds,dailyrainin,SoftwareType,DateUTC
2013-02-25 00:00:00,27.6,22.8,30.18,SW,234,0.0,2.0,82,0.00,,---,0.00,VWS V13.01,2013-02-25 05:00:00,
2013-02-25 00:05:00,27.6,22.8,30.17,SSW,213,1.0,3.0,82,0.00,,---,0.00,VWS V13.01,2013-02-25 05:05:00,
2013-02-25 00:10:00,27.6,22.8,30.18,SSW,213,2.0,3.0,82,0.00,,---,0.00,VWS V13.01,2013-02-25 05:10:00,
2013-02-25 00:15:00,27.7,22.9,30.18,SSW,213,1.0,3.0,82,0.00,,---,0.00,VWS V13.01,2013-02-25 05:15:00,
2013-02-25 00:20:00,27.8,23.0,30.18,SSW,212,0.0,3.0,82,0.00,,---,0.00,VWS V13.01,2013-02-25 05:20:00,
2013-02-25 00:25:00,27.8,22.7,30.18,SSW,212,0.0,3.0,81,0.00,,---,0.00,VWS V13.01,2013-02-25 05:25:00,
2013-02-25 00:30:00,27.8,22.7,30.18,SW,223,3.0,4.0,81,0.00,,---,0.00,VWS V13.01,2013-02-25 05:30:00,
2013-02-25 00:35:00,27.8,22.7,30.18,SW,223,1.0,4.0,81,0.00,,---,0.00,VWS V13.01,2013-02-25 05:35:00,
2013-02-25 00:40:00,27.7,22.6,30.18,SW,219,0.0,4.0,81,0.00,,---,0.00,VWS V13.01,2013-02-25 05:40:00,
2013-02-25 00:45:00,27.7,22.6,30.18,SW,223,3.0,4.0,81,0.00,,---,0.00,VWS V13.01,2013-02-25 05:45:00,
2013-02-25 00:50:00,27.8,22.7,30.18,SW,225,0.0,4.0,81,0.00,,---,0.00,VWS V13.01,2013-02-25 05:50:00,
2013-02-25 00:55:00,27.8,22.7,30.18,SW,225,0.0,4.0,81,0.00,,---,0.00,VWS V13.01,2013-02-25 05:55:00,
2013-02-25 01:00:00,27.8,22.7,30.18,SW,224,0.0,1.0,81,0.00,,---,0.00,VWS V13.01,2013-02-25 06:00:00,
2013-02-25 01:05:00,27.8,22.7,30.19,SSW,209,0.0,3.0,81,0.00,,---,0.00,VWS V13.01,2013-02-25 06:05:00,
2013-02-25 01:10:00,27.8,22.7,30.19,SSW,209,2.0,3.0,81,0.00,,---,0.00,VWS V13.01,2013-02-25 06:10:00,
2013-02-25 01:15:00,27.8,22.7,30.19,SSW,209,0.0,3.0,81,0.00,,---,0.00,VWS V13.01,2013-02-25 06:15:00,
2013-02-25 01:20:00,27.8,22.7,30.19,SSW,209,0.0,3.0,81,0.00,,---,0.00,VWS V13.01,2013-02-25 06:20:00,
2013-02-25 01:25:00,27.7,22.6,30.19,SSW,209,2.0,3.0,81,0.00,,---,0.00,VWS V13.01,2013-02-25 06:25:00,
2013-02-25 01:30:00,27.7,22.6,30.19,SSW,209,3.0,3.0,81,0.00,,---,0.00,VWS V13.01,2013-02-25 06:30:00,
2013-02-25 01:35:00,27.6,22.5,30.19,SSW,209,1.0,3.0,81,0.00,,---,0.00,VWS V13.01,2013-02-25 06:35:00,
2013-02-25 01:40:00,27.6,22.5,30.19,SSW,209,3.0,3.0,81,0.00,,---,0.00,VWS V13.01,2013-02-25 06:40:00,
2013-02-25 01:45:00,27.6,22.5,30.19,SW,215,2.0,4.0,81,0.00,,---,0.00,VWS V13.01,2013-02-25 06:45:00,
2013-02-25 01:50:00,27.6,22.5,30.19,SW,219,2.0,4.0,81,0.00,,---,0.00,VWS V13.01,2013-02-25 06:50:00,
2013-02-25 01:55:00,27.6,22.5,30.20,SW,219,2.0,4.0,81,0.00,,---,0.00,VWS V13.01,2013-02-25 06:55:00,
2013-02-25 02:00:00,27.6,22.5,30.19,SW,219,2.0,2.0,81,0.00,,---,0.00,VWS V13.01,2013-02-25 07:00:00,
2013-02-25 02:05:00,27.6,22.5,30.20,SW,219,0.0,3.0,81,0.00,,---,0.00,VWS V13.01,2013-02-25 07:05:00,
2013-02-25 02:10:00,27.6,22.5,30.19,SW,219,2.0,3.0,81,0.00,,---,0.00,VWS V13.01,2013-02-25 07:10:00,
2013-02-25 02:15:00,27.5,22.5,30.20,SW,219,0.0,3.0,81,0.00,,---,0.00,VWS V13.01,2013-02-25 07:15:00,
2013-02-25 02:20:00,27.5,22.5,30.19,SW,219,0.0,3.0,81,0.00,,---,0.00,VWS V13.01,2013-02-25 07:20:00,
2013-02-25 02:25:00,27.5,22.5,30.20,SW,219,2.0,3.0,81,0.00,,---,0.00,VWS V13.01,2013-02-25 07:25:00,
2013-02-25 02:30:00,27.5,22.5,30.20,SW,219,0.0,1.0,81,0.00,,---,0.00,VWS V13.01,2013-02-25 07:30:00,
2013-02-25 02:35:00,27.5,22.5,30.20,SW,219,1.0,2.0,81,0.00,,---,0.00,VWS V13.01,2013-02-25 07:35:00,
2013-02-25 02:40:00,27.6,22.5,30.20,SW,219,0.0,3.0,81,0.00,,---,0.00,VWS V13.01,2013-02-25 07:40:00,
2013-02-25 02:45:00,27.6,22.5,30.20,SW,215,2.0,3.0,81,0.00,,---,0.00,VWS V13.01,2013-02-25 07:45:00,
2013-02-25 02:50:00,27.6,22.5,30.20,SW,215,0.0,3.0,81,0.00,,---,0.00,VWS V13.01,2013-02-25 07:50:00,
2013-02-25 02:55:00,27.6,22.5,30.20,SW,215,1.0,3.0,81,0.00,,---,0.00,VWS V13.01,2013-02-25 07:55:00,
2013-02-25 03:00:00,27.6,22.5,30.19,SW,215,2.0,3.0,81,0.00,,---,0.00,VWS V13.01,2013-02-25 08:00:00,
2013-02-25 03:05:00,27.6,22.5,30.20,SW,215,0.0,3.0,81,0.00,,---,0.00,VWS V13.01,2013-02-25 08:05:00,
2013-02-25 03:10:00,27.7,22.6,30.19,SW,215,2.0,3.0,81,0.00,,---,0.00,VWS V13.01,2013-02-25 08:10:00,
2013-02-25 03:15:00,27.7,22.6,30.20,SW,215,3.0,3.0,81,0.00,,---,0.00,VWS V13.01,2013-02-25 08:15:00,
2013-02-25 03:20:00,27.7,22.6,30.20,SW,215,1.0,3.0,81,0.00,,---,0.00,VWS V13.01,2013-02-25 08:20:00,
2013-02-25 03:25:00,27.7,22.4,30.20,SW,215,1.0,3.0,80,0.00,,---,0.00,VWS V13.01,2013-02-25 08:25:00,
2013-02-25 03:30:00,27.7,22.6,30.20,SW,215,0.0,2.0,81,0.00,,---,0.00,VWS V13.01,2013-02-25 08:30:00,
2013-02-25 03:35:00,27.6,22.5,30.20,SW,215,1.0,3.0,81,0.00,,---,0.00,VWS V13.01,2013-02-25 08:35:00,
2013-02-25 03:40:00,27.6,22.5,30.19,SW,215,1.0,3.0,81,0.00,,---,0.00,VWS V13.01,2013-02-25 08:40:00,
2013-02-25 03:45:00,27.6,22.5,30.19,SW,215,2.0,3.0,81,0.00,,---,0.00,VWS V13.01,2013-02-25 08:45:00,
2013-02-25 03:50:00,27.6,22.5,30.19,SW,215,1.0,3.0,81,0.00,,---,0.00,VWS V13.01,2013-02-25 08:50:00,
2013-02-25 03:55:00,27.6,22.5,30.19,SW,215,0.0,3.0,81,0.00,,---,0.00,VWS V13.01,2013-02-25 08:55:00,
2013-02-25 04:00:00,27.6,22.5,30.19,SW,233,0.0,1.0,81,0.00,,---,0.00,VWS V13.01,2013-02-25 09:00:00,
2013-02-25 04:05:00,27.6,22.5,30.19,SW,233,0.0,2.0,81,0.00,,---,0.00,VWS V13.01,2013-02-25 09:05:00,
2013-02-25 04:10:00,27.5,22.5,30.19,SW,233,0.0,2.0,81,0.00,,---,0.00,VWS V13.01,2013-02-25 09:10:00,
2013-02-25 04:15:00,27.5,22.5,30.19,SW,233,0.0,2.0,81,0.00,,---,0.00,VWS V13.01,2013-02-25 09:15:00,
2013-02-25 04:20:00,27.5,22.5,30.19,SW,233,2.0,2.0,81,0.00,,---,0.00,VWS V13.01,2013-02-25 09:20:00,
2013-02-25 04:25:00,27.4,22.4,30.19,SW,233,1.0,2.0,81,0.00,,---,0.00,VWS V13.01,2013-02-25 09:25:00,
2013-02-25 04:30:00,27.4,22.4,30.19,SW,233,1.0,1.0,81,0.00,,---,0.00,VWS V13.01,2013-02-25 09:30:00,
2013-02-25 04:35:00,27.4,22.4,30.19,SW,233,0.0,2.0,81,0.00,,---,0.00,VWS V13.01,2013-02-25 09:35:00,
2013-02-25 04:40:00,27.5,22.7,30.20,SW,233,0.0,2.0,82,0.00,,---,0.00,VWS V13.01,2013-02-25 09:40:00,
2013-02-25 04:45:00,27.5,22.7,30.20,SW,233,1.0,2.0,82,0.00,,---,0.00,VWS V13.01,2013-02-25 09:45:00,
2013-02-25 04:50:00,27.6,22.8,30.20,SW,233,0.0,2.0,82,0.00,,---,0.00,VWS V13.01,2013-02-25 09:50:00,
2013-02-25 04:55:00,27.6,22.8,30.20,SW,233,0.0,2.0,82,0.00,,---,0.00,VWS V13.01,2013-02-25 09:55:00,
2013-02-25 05:00:00,27.6,22.5,30.19,SW,233,0.0,0.0,81,0.00,,---,0.00,VWS V13.01,2013-02-25 10:00:00,
2013-02-25 05:05:00,27.6,22.5,30.20,SW,233,0.0,0.0,81,0.00,,---,0.00,VWS V13.01,2013-02-25 10:05:00,
2013-02-25 05:10:00,27.5,22.5,30.19,SW,233,0.0,0.0,81,0.00,,---,0.00,VWS V13.01,2013-02-25 10:10:00,
2013-02-25 05:15:00,27.4,22.4,30.19,SW,233,0.0,0.0,81,0.00,,---,0.00,VWS V13.01,2013-02-25 10:15:00,
2013-02-25 05:20:00,27.3,22.2,30.20,SW,233,0.0,0.0,81,0.00,,---,0.00,VWS V13.01,2013-02-25 10:20:00,
2013-02-25 05:25:00,27.1,22.1,30.20,SW,233,0.0,0.0,81,0.00,,---,0.00,VWS V13.01,2013-02-25 10:25:00,
2013-02-25 05:30:00,27.0,22.2,30.20,SW,233,0.0,0.0,82,0.00,,---,0.00,VWS V13.01,2013-02-25 10:30:00,
2013-02-25 05:35:00,26.9,22.1,30.20,SW,233,0.0,0.0,82,0.00,,---,0.00,VWS V13.01,2013-02-25 10:35:00,
2013-02-25 05:40:00,26.7,22.0,30.22,SW,233,0.0,0.0,82,0.00,,---,0.00,VWS V13.01,2013-02-25 10:40:00,
2013-02-25 05:45:00,26.5,21.8,30.22,SW,233,1.0,2.0,82,0.00,,---,0.00,VWS V13.01,2013-02-25 10:45:00,
2013-02-25 05:50:00,26.3,21.9,30.22,SW,233,0.0,2.0,83,0.00,,---,0.00,VWS V13.01,2013-02-25 10:50:00,
2013-02-25 05:55:00,26.2,21.8,30.22,SW,233,0.0,2.0,83,0.00,,---,0.00,VWS V13.01,2013-02-25 10:55:00,
2013-02-25 06:00:00,26.0,21.6,30.23,SW,233,1.0,1.0,83,0.00,,---,0.00,VWS V13.01,2013-02-25 11:00:00,
2013-02-25 06:05:00,25.9,21.7,30.23,SW,233,1.0,2.0,84,0.00,,---,0.00,VWS V13.01,2013-02-25 11:05:00,
2013-02-25 06:10:00,25.8,21.6,30.23,SW,233,0.0,2.0,84,0.00,,---,0.00,VWS V13.01,2013-02-25 11:10:00,
2013-02-25 06:15:00,25.8,21.9,30.24,SW,233,1.0,2.0,85,0.00,,---,0.00,VWS V13.01,2013-02-25 11:15:00,
2013-02-25 06:21:00,25.8,21.9,30.23,SW,233,0.0,2.0,85,0.00,,---,0.00,VWS V13.01,2013-02-25 11:21:00,
2013-02-25 06:25:00,25.9,22.0,30.23,SW,233,0.0,2.0,85,0.00,,---,0.00,VWS V13.01,2013-02-25 11:25:00,
2013-02-25 06:30:00,26.0,22.1,30.23,SW,233,0.0,0.0,85,0.00,,---,0.00,VWS V13.01,2013-02-25 11:30:00,
2013-02-25 06:35:00,26.0,22.1,30.23,SW,233,0.0,0.0,85,0.00,,---,0.00,VWS V13.01,2013-02-25 11:35:00,
2013-02-25 06:40:00,26.0,22.1,30.23,SW,233,0.0,0.0,85,0.00,,---,0.00,VWS V13.01,2013-02-25 11:40:00,
2013-02-25 06:45:00,26.1,22.2,30.23,SW,233,0.0,0.0,85,0.00,,---,0.00,VWS V13.01,2013-02-25 11:45:00,
2013-02-25 06:50:00,26.2,22.3,30.23,SW,233,0.0,0.0,85,0.00,,---,0.00,VWS V13.01,2013-02-25 11:50:00,
2013-02-25 06:55:00,26.2,22.3,30.22,SW,233,0.0,0.0,85,0.00,,---,0.00,VWS V13.01,2013-02-25 11:55:00,
2013-02-25 07:01:00,26.3,22.4,30.23,SW,233,0.0,0.0,85,0.00,,---,0.00,VWS V13.01,2013-02-25 12:01:00,
2013-02-25 07:05:00,26.3,22.4,30.23,SW,233,0.0,0.0,85,0.00,,---,0.00,VWS V13.01,2013-02-25 12:05:00,
2013-02-25 07:11:00,26.4,22.5,30.23,SW,233,0.0,0.0,85,0.00,,---,0.00,VWS V13.01,2013-02-25 12:11:00,
2013-02-25 07:16:00,26.4,22.8,30.23,SW,233,0.0,0.0,86,0.00,,---,0.00,VWS V13.01,2013-02-25 12:16:00,
2013-02-25 07:21:00,26.5,22.9,30.23,SW,233,0.0,0.0,86,0.00,,---,0.00,VWS V13.01,2013-02-25 12:21:00,
2013-02-25 07:26:00,26.6,23.0,30.23,SW,233,0.0,0.0,86,0.00,,---,0.00,VWS V13.01,2013-02-25 12:26:00,
2013-02-25 07:31:00,26.6,22.7,30.23,SW,233,0.0,0.0,85,0.00,,---,0.00,VWS V13.01,2013-02-25 12:31:00,
2013-02-25 07:36:00,26.6,23.0,30.23,SW,233,0.0,0.0,86,0.00,,---,0.00,VWS V13.01,2013-02-25 12:36:00,
2013-02-25 07:41:00,26.7,23.1,30.24,SW,233,0.0,2.0,86,0.00,,---,0.00,VWS V13.01,2013-02-25 12:41:00,
2013-02-25 07:46:00,26.7,22.8,30.24,SW,233,0.0,2.0,85,0.00,,---,0.00,VWS V13.01,2013-02-25 12:46:00,
2013-02-25 07:51:00,26.9,23.0,30.24,SW,233,1.0,3.0,85,0.00,,---,0.00,VWS V13.01,2013-02-25 12:51:00,
2013-02-25 07:56:00,27.1,23.2,30.25,SW,233,0.0,3.0,85,0.00,,---,0.00,VWS V13.01,2013-02-25 12:56:00,
2013-02-25 08:01:00,27.2,23.0,30.25,SW,233,0.0,0.0,84,0.00,,---,0.00,VWS V13.01,2013-02-25 13:01:00,
2013-02-25 08:06:00,27.4,23.2,30.25,SW,233,0.0,1.0,84,0.00,,---,0.00,VWS V13.01,2013-02-25 13:06:00,
2013-02-25 08:11:00,27.7,23.5,30.25,SW,233,0.0,1.0,84,0.00,,---,0.00,VWS V13.01,2013-02-25 13:11:00,
2013-02-25 08:17:00,28.0,23.5,30.25,SW,233,2.0,3.0,83,0.00,,---,0.00,VWS V13.01,2013-02-25 13:17:00,
2013-02-25 08:21:00,28.3,23.8,30.25,SW,233,1.0,3.0,83,0.00,,---,0.00,VWS V13.01,2013-02-25 13:21:00,
2013-02-25 08:26:00,28.7,23.9,30.25,SW,233,0.0,3.0,82,0.00,,---,0.00,VWS V13.01,2013-02-25 13:26:00,
2013-02-25 08:31:00,29.0,23.6,30.25,SW,233,0.0,0.0,80,0.00,,---,0.00,VWS V13.01,2013-02-25 13:31:00,
2013-02-25 08:36:00,29.3,23.9,30.25,SW,231,2.0,3.0,80,0.00,,---,0.00,VWS V13.01,2013-02-25 13:36:00,
2013-02-25 08:41:00,29.5,23.8,30.25,SW,231,2.0,3.0,79,0.00,,---,0.00,VWS V13.01,2013-02-25 13:41:00,
2013-02-25 08:46:00,29.8,23.8,30.25,SW,231,1.0,3.0,78,0.00,,---,0.00,VWS V13.01,2013-02-25 13:46:00,
2013-02-25 08:51:00,30.0,24.0,30.26,SW,229,3.0,3.0,78,0.00,,---,0.00,VWS V13.01,2013-02-25 13:51:00,
2013-02-25 08:56:00,30.4,24.4,30.26,WSW,238,3.0,4.0,78,0.00,,---,0.00,VWS V13.01,2013-02-25 13:56:00,
2013-02-25 09:02:00,30.7,24.4,30.26,WSW,238,0.0,2.0,77,0.00,,---,0.00,VWS V13.01,2013-02-25 14:02:00,
2013-02-25 09:07:00,31.2,24.8,30.26,SSW,198,2.0,4.0,77,0.00,,---,0.00,VWS V13.01,2013-02-25 14:07:00,
2013-02-25 09:12:00,31.6,25.2,30.26,South,191,0.0,4.0,77,0.00,,---,0.00,VWS V13.01,2013-02-25 14:12:00,
2013-02-25 09:17:00,32.0,25.3,30.26,SW,220,2.0,4.0,76,0.00,,---,0.00,VWS V13.01,2013-02-25 14:17:00,
2013-02-25 09:22:00,32.3,25.0,30.27,SSW,213,0.0,4.0,74,0.00,,---,0.00,VWS V13.01,2013-02-25 14:22:00,
2013-02-25 09:27:00,32.9,24.9,30.26,WSW,243,0.0,4.0,72,0.00,,---,0.00,VWS V13.01,2013-02-25 14:27:00,
2013-02-25 09:32:00,33.3,24.9,30.27,WSW,252,0.0,1.0,71,0.00,,---,0.00,VWS V13.01,2013-02-25 14:32:00,
2013-02-25 09:37:00,33.7,25.3,30.27,WSW,252,0.0,2.0,71,0.00,,---,0.00,VWS V13.01,2013-02-25 14:37:00,
2013-02-25 09:42:00,34.0,24.9,30.27,South,172,0.0,2.0,69,0.00,,---,0.00,VWS V13.01,2013-02-25 14:42:00,
2013-02-25 09:47:00,34.5,25.7,30.27,SSW,195,1.0,3.0,70,0.00,,---,0.00,VWS V13.01,2013-02-25 14:47:00,
2013-02-25 09:52:00,35.1,25.6,30.27,WSW,237,5.0,6.0,68,0.00,,---,0.00,VWS V13.01,2013-02-25 14:52:00,
2013-02-25 09:57:00,35.1,24.9,30.27,SW,219,5.0,6.0,66,0.00,,---,0.00,VWS V13.01,2013-02-25 14:57:00,
2013-02-25 10:02:00,35.1,24.9,30.26,WSW,238,4.0,4.0,66,0.00,,---,0.00,VWS V13.01,2013-02-25 15:02:00,
2013-02-25 10:07:00,35.2,25.0,30.27,SW,235,4.0,5.0,66,0.00,,---,0.00,VWS V13.01,2013-02-25 15:07:00,
2013-02-25 10:12:00,35.5,24.9,30.26,SW,227,2.0,5.0,65,0.00,,---,0.00,VWS V13.01,2013-02-25 15:12:00,
2013-02-25 10:17:00,35.5,24.9,30.26,SW,223,4.0,5.0,65,0.00,,---,0.00,VWS V13.01,2013-02-25 15:17:00,
2013-02-25 10:22:00,35.6,25.4,30.26,WSW,244,3.0,6.0,66,0.00,,---,0.00,VWS V13.01,2013-02-25 15:22:00,
2013-02-25 10:27:00,35.7,25.1,30.26,WNW,300,1.0,6.0,65,0.00,,---,0.00,VWS V13.01,2013-02-25 15:27:00,
2013-02-25 10:32:00,36.2,24.8,30.26,NNE,22,5.0,6.0,63,0.00,,---,0.00,VWS V13.01,2013-02-25 15:32:00,
2013-02-25 10:37:00,36.2,23.7,30.26,NW,322,2.0,6.0,60,0.00,,---,0.00,VWS V13.01,2013-02-25 15:37:00,
2013-02-25 10:42:00,36.0,25.0,30.26,NW,317,3.0,6.0,64,0.00,,---,0.00,VWS V13.01,2013-02-25 15:42:00,
2013-02-25 10:47:00,36.3,24.5,30.26,North,360,3.0,7.0,62,0.00,,---,0.00,VWS V13.01,2013-02-25 15:47:00,
2013-02-25 10:52:00,36.3,24.9,30.26,NE,40,2.0,7.0,63,0.00,,---,0.00,VWS V13.01,2013-02-25 15:52:00,
2013-02-25 10:57:00,36.8,24.2,30.25,NE,56,3.0,7.0,60,0.00,,---,0.00,VWS V13.01,2013-02-25 15:57:00,
2013-02-25 11:02:00,37.0,24.4,30.25,NE,42,4.0,8.0,60,0.00,,---,0.00,VWS V13.01,2013-02-25 16:02:00,
2013-02-25 11:07:00,37.1,24.5,30.25,ENE,67,1.0,8.0,60,0.00,,---,0.00,VWS V13.01,2013-02-25 16:07:00,
2013-02-25 11:12:00,37.0,24.0,30.25,ENE,71,0.0,8.0,59,0.00,,---,0.00,VWS V13.01,2013-02-25 16:12:00,
2013-02-25 11:17:00,37.3,24.7,30.25,East,88,5.0,8.0,60,0.00,,---,0.00,VWS V13.01,2013-02-25 16:17:00,
2013-02-25 11:22:00,37.4,24.4,30.25,East,86,2.0,8.0,59,0.00,,---,0.00,VWS V13.01,2013-02-25 16:22:00,
2013-02-25 11:27:00,37.7,24.7,30.25,ENE,76,2.0,8.0,59,0.00,,---,0.00,VWS V13.01,2013-02-25 16:27:00,
2013-02-25 11:32:00,37.7,24.7,30.25,South,178,2.0,7.0,59,0.00,,---,0.00,VWS V13.01,2013-02-25 16:32:00,
2013-02-25 11:37:00,37.5,24.1,30.25,ENE,59,1.0,7.0,58,0.00,,---,0.00,VWS V13.01,2013-02-25 16:37:00,
2013-02-25 11:42:00,37.1,23.7,30.25,ENE,60,1.0,7.0,58,0.00,,---,0.00,VWS V13.01,2013-02-25 16:42:00,
2013-02-25 11:47:00,37.4,24.8,30.24,NE,46,2.0,7.0,60,0.00,,---,0.00,VWS V13.01,2013-02-25 16:47:00,
2013-02-25 11:52:00,37.5,24.1,30.24,NNW,345,1.0,7.0,58,0.00,,---,0.00,VWS V13.01,2013-02-25 16:52:00,
2013-02-25 11:57:00,37.0,23.6,30.24,NW,317,2.0,7.0,58,0.00,,---,0.00,VWS V13.01,2013-02-25 16:57:00,
2013-02-25 12:02:00,36.8,23.8,30.24,North,351,1.0,3.0,59,0.00,,---,0.00,VWS V13.01,2013-02-25 17:02:00,
2013-02-25 12:07:00,37.2,25.4,30.24,NW,309,1.0,4.0,62,0.00,,---,0.00,VWS V13.01,2013-02-25 17:07:00,
2013-02-25 12:12:00,37.8,24.8,30.24,North,5,5.0,8.0,59,0.00,,---,0.00,VWS V13.01,2013-02-25 17:12:00,
2013-02-25 12:17:00,38.2,23.9,30.24,NNE,15,4.0,9.0,56,0.00,,---,0.00,VWS V13.01,2013-02-25 17:17:00,
2013-02-25 12:22:00,37.8,23.5,30.24,NNW,340,2.0,9.0,56,0.00,,---,0.00,VWS V13.01,2013-02-25 17:22:00,
2013-02-25 12:27:00,37.9,24.0,30.23,NW,320,1.0,9.0,57,0.00,,---,0.00,VWS V13.01,2013-02-25 17:27:00,
2013-02-25 12:32:00,38.4,25.3,30.23,WNW,300,5.0,5.0,59,0.00,,---,0.00,VWS V13.01,2013-02-25 17:32:00,
2013-02-25 12:37:00,39.1,26.0,30.23,NW,319,6.0,7.0,59,0.00,,---,0.00,VWS V13.01,2013-02-25 17:37:00,
2013-02-25 12:42:00,39.3,24.9,30.22,West,275,0.0,7.0,56,0.00,,---,0.00,VWS V13.01,2013-02-25 17:42:00,
2013-02-25 12:47:00,39.6,25.6,30.22,North,5,5.0,7.0,57,0.00,,---,0.00,VWS V13.01,2013-02-25 17:47:00,
2013-02-25 12:52:00,39.5,24.7,30.22,North,5,3.0,9.0,55,0.00,,---,0.00,VWS V13.01,2013-02-25 17:52:00,
2013-02-25 12:57:00,39.5,25.1,30.21,East,96,5.0,9.0,56,0.00,,---,0.00,VWS V13.01,2013-02-25 17:57:00,
2013-02-25 13:02:00,39.8,26.2,30.20,West,269,4.0,4.0,58,0.00,,---,0.00,VWS V13.01,2013-02-25 18:02:00,
2013-02-25 13:07:00,40.2,25.8,30.20,NE,39,1.0,5.0,56,0.00,,---,0.00,VWS V13.01,2013-02-25 18:07:00,
2013-02-25 13:12:00,40.8,26.3,30.20,NNE,13,3.0,11.0,56,0.00,,---,0.00,VWS V13.01,2013-02-25 18:12:00,
2013-02-25 13:17:00,40.6,25.7,30.20,North,5,5.0,11.0,55,0.00,,---,0.00,VWS V13.01,2013-02-25 18:17:00,
2013-02-25 13:22:00,40.6,25.3,30.20,NE,49,1.0,11.0,54,0.00,,---,0.00,VWS V13.01,2013-02-25 18:22:00,
2013-02-25 13:27:00,40.6,25.7,30.19,NNW,338,0.0,11.0,55,0.00,,---,0.00,VWS V13.01,2013-02-25 18:27:00,
2013-02-25 13:32:00,41.0,26.1,30.20,NNW,336,0.0,3.0,55,0.00,,---,0.00,VWS V13.01,2013-02-25 18:32:00,
2013-02-25 13:37:00,41.4,25.1,30.20,ENE,78,0.0,6.0,52,0.00,,---,0.00,VWS V13.01,2013-02-25 18:37:00,
2013-02-25 13:42:00,41.4,25.6,30.19,WNW,291,2.0,6.0,53,0.00,,---,0.00,VWS V13.01,2013-02-25 18:42:00,
2013-02-25 13:47:00,41.8,25.5,30.19,West,270,2.0,6.0,52,0.00,,---,0.00,VWS V13.01,2013-02-25 18:47:00,
2013-02-25 13:52:00,42.0,25.7,30.19,NNW,342,5.0,9.0,52,0.00,,---,0.00,VWS V13.01,2013-02-25 18:52:00,
2013-02-25 13:57:00,41.5,25.2,30.19,NW,313,0.0,9.0,52,0.00,,---,0.00,VWS V13.01,2013-02-25 18:57:00,
2013-02-25 14:02:00,41.8,26.4,30.18,North,5,1.0,6.0,54,0.00,,---,0.00,VWS V13.01,2013-02-25 19:02:00,
2013-02-25 14:07:00,42.2,26.8,30.18,North,11,4.0,6.0,54,0.00,,---,0.00,VWS V13.01,2013-02-25 19:07:00,
2013-02-25 14:12:00,42.4,26.0,30.18,ENE,63,2.0,7.0,52,0.00,,---,0.00,VWS V13.01,2013-02-25 19:12:00,
2013-02-25 14:17:00,42.3,25.5,30.18,East,101,5.0,7.0,51,0.00,,---,0.00,VWS V13.01,2013-02-25 19:17:00,
2013-02-25 14:22:00,42.1,26.2,30.17,NW,319,2.0,7.0,53,0.00,,---,0.00,VWS V13.01,2013-02-25 19:22:00,
2013-02-25 14:27:00,42.2,25.9,30.17,NNE,18,3.0,7.0,52,0.00,,---,0.00,VWS V13.01,2013-02-25 19:27:00,
2013-02-25 14:32:00,42.4,26.0,30.17,SE,132,5.0,6.0,52,0.00,,---,0.00,VWS V13.01,2013-02-25 19:32:00,
2013-02-25 14:37:00,43.0,26.1,30.17,ESE,117,2.0,6.0,51,0.00,,---,0.00,VWS V13.01,2013-02-25 19:37:00,
2013-02-25 14:42:00,43.0,26.1,30.17,SE,134,1.0,6.0,51,0.00,,---,0.00,VWS V13.01,2013-02-25 19:42:00,
2013-02-25 14:47:00,43.4,26.5,30.17,NW,314,6.0,6.0,51,0.00,,---,0.00,VWS V13.01,2013-02-25 19:47:00,
2013-02-25 14:52:00,43.7,25.8,30.17,ENE,71,1.0,6.0,49,0.00,,---,0.00,VWS V13.01,2013-02-25 19:52:00,
2013-02-25 14:57:00,43.7,26.3,30.17,West,269,2.0,6.0,50,0.00,,---,0.00,VWS V13.01,2013-02-25 19:57:00,
2013-02-25 15:02:00,44.1,27.1,30.17,WNW,297,0.0,4.0,51,0.00,,---,0.00,VWS V13.01,2013-02-25 20:02:00,
2013-02-25 15:07:00,44.5,26.5,30.17,NE,44,1.0,5.0,49,0.00,,---,0.00,VWS V13.01,2013-02-25 20:07:00,
2013-02-25 15:12:00,44.2,25.8,30.17,North,5,2.0,6.0,48,0.00,,---,0.00,VWS V13.01,2013-02-25 20:12:00,
2013-02-25 15:17:00,43.8,25.4,30.17,North,355,0.0,8.0,48,0.00,,---,0.00,VWS V13.01,2013-02-25 20:17:00,
2013-02-25 15:22:00,44.0,26.1,30.17,ENE,70,0.0,8.0,49,0.00,,---,0.00,VWS V13.01,2013-02-25 20:22:00,
2013-02-25 15:27:00,44.4,26.9,30.17,North,11,4.0,8.0,50,0.00,,---,0.00,VWS V13.01,2013-02-25 20:27:00,
2013-02-25 15:32:00,44.5,25.5,30.17,NE,43,2.0,8.0,47,0.00,,---,0.00,VWS V13.01,2013-02-25 20:32:00,
2013-02-25 15:37:00,44.1,25.7,30.17,NNE,19,2.0,8.0,48,0.00,,---,0.00,VWS V13.01,2013-02-25 20:37:00,
2013-02-25 15:42:00,44.1,25.7,30.17,NNE,15,4.0,8.0,48,0.00,,---,0.00,VWS V13.01,2013-02-25 20:42:00,
2013-02-25 15:47:00,44.3,25.9,30.17,ENE,62,3.0,8.0,48,0.00,,---,0.00,VWS V13.01,2013-02-25 20:47:00,
2013-02-25 15:52:00,44.4,26.0,30.16,NE,54,2.0,9.0,48,0.00,,---,0.00,VWS V13.01,2013-02-25 20:52:00,
2013-02-25 15:57:00,44.3,25.4,30.16,NNE,26,5.0,9.0,47,0.00,,---,0.00,VWS V13.01,2013-02-25 20:57:00,
2013-02-25 16:02:00,44.3,25.9,30.16,NNE,16,5.0,10.0,48,0.00,,---,0.00,VWS V13.01,2013-02-25 21:02:00,
2013-02-25 16:07:00,44.1,25.7,30.16,NE,47,2.0,10.0,48,0.00,,---,0.00,VWS V13.01,2013-02-25 21:07:00,
2013-02-25 16:12:00,44.1,25.2,30.16,North,360,7.0,10.0,47,0.00,,---,0.00,VWS V13.01,2013-02-25 21:12:00,
2013-02-25 16:17:00,43.9,25.0,30.16,NNE,28,3.0,10.0,47,0.00,,---,0.00,VWS V13.01,2013-02-25 21:17:00,
2013-02-25 16:22:00,43.7,25.3,30.16,North,355,4.0,10.0,48,0.00,,---,0.00,VWS V13.01,2013-02-25 21:22:00,
2013-02-25 16:27:00,43.8,25.4,30.16,WNW,301,3.0,10.0,48,0.00,,---,0.00,VWS V13.01,2013-02-25 21:27:00,
2013-02-25 16:32:00,43.8,25.4,30.16,NNW,344,6.0,6.0,48,0.00,,---,0.00,VWS V13.01,2013-02-25 21:32:00,
2013-02-25 16:37:00,43.9,25.0,30.16,NNE,15,5.0,6.0,47,0.00,,---,0.00,VWS V13.01,2013-02-25 21:37:00,
2013-02-25 16:42:00,44.0,25.6,30.16,NNE,26,5.0,7.0,48,0.00,,---,0.00,VWS V13.01,2013-02-25 21:42:00,
2013-02-25 16:47:00,44.2,25.3,30.16,ENE,74,2.0,7.0,47,0.00,,---,0.00,VWS V13.01,2013-02-25 21:47:00,
2013-02-25 16:52:00,44.2,25.3,30.16,NNW,342,2.0,7.0,47,0.00,,---,0.00,VWS V13.01,2013-02-25 21:52:00,
2013-02-25 16:57:00,43.8,25.4,30.16,North,10,6.0,7.0,48,0.00,,---,0.00,VWS V13.01,2013-02-25 21:57:00,
2013-02-25 17:02:00,43.8,24.9,30.16,NE,35,6.0,6.0,47,0.00,,---,0.00,VWS V13.01,2013-02-25 22:02:00,
2013-02-25 17:07:00,43.7,24.8,30.16,NW,321,4.0,8.0,47,0.00,,---,0.00,VWS V13.01,2013-02-25 22:07:00,
2013-02-25 17:12:00,43.4,25.0,30.16,NE,38,6.0,8.0,48,0.00,,---,0.00,VWS V13.01,2013-02-25 22:12:00,
2013-02-25 17:17:00,43.2,25.4,30.15,NNE,26,1.0,8.0,49,0.00,,---,0.00,VWS V13.01,2013-02-25 22:17:00,
2013-02-25 17:22:00,43.1,25.3,30.16,NNE,23,3.0,8.0,49,0.00,,---,0.00,VWS V13.01,2013-02-25 22:22:00,
2013-02-25 17:27:00,42.8,24.5,30.16,North,5,3.0,8.0,48,0.00,,---,0.00,VWS V13.01,2013-02-25 22:27:00,
2013-02-25 17:32:00,42.5,25.2,30.15,NNE,19,4.0,6.0,50,0.00,,---,0.00,VWS V13.01,2013-02-25 22:32:00,
2013-02-25 17:37:00,42.2,24.4,30.15,NNE,13,3.0,6.0,49,0.00,,---,0.00,VWS V13.01,2013-02-25 22:37:00,
2013-02-25 17:42:00,41.9,24.6,30.15,North,360,3.0,6.0,50,0.00,,---,0.00,VWS V13.01,2013-02-25 22:42:00,
2013-02-25 17:47:00,41.5,24.7,30.15,North,11,2.0,6.0,51,0.00,,---,0.00,VWS V13.01,2013-02-25 22:47:00,
2013-02-25 17:52:00,41.1,24.4,30.15,NNE,32,4.0,6.0,51,0.00,,---,0.00,VWS V13.01,2013-02-25 22:52:00,
2013-02-25 17:57:00,40.9,24.2,30.15,NNE,24,2.0,6.0,51,0.00,,---,0.00,VWS V13.01,2013-02-25 22:57:00,
2013-02-25 18:02:00,40.6,24.4,30.16,NNE,32,2.0,3.0,52,0.00,,---,0.00,VWS V13.01,2013-02-25 23:02:00,
2013-02-25 18:07:00,40.3,24.1,30.15,NE,40,4.0,4.0,52,0.00,,---,0.00,VWS V13.01,2013-02-25 23:07:00,
2013-02-25 18:12:00,40.0,24.3,30.15,NNE,26,2.0,5.0,53,0.00,,---,0.00,VWS V13.01,2013-02-25 23:12:00,
2013-02-25 18:17:00,39.7,24.4,30.15,NE,35,4.0,5.0,54,0.00,,---,0.00,VWS V13.01,2013-02-25 23:17:00,
2013-02-25 18:22:00,39.4,24.1,30.15,NE,38,2.0,5.0,54,0.00,,---,0.00,VWS V13.01,2013-02-25 23:22:00,
2013-02-25 18:27:00,39.2,24.0,30.15,NE,44,2.0,5.0,54,0.00,,---,0.00,VWS V13.01,2013-02-25 23:27:00,
2013-02-25 18:32:00,38.8,24.0,30.15,NE,56,3.0,3.0,55,0.00,,---,0.00,VWS V13.01,2013-02-25 23:32:00,
2013-02-25 18:37:00,38.4,24.1,30.15,NE,49,3.0,4.0,56,0.00,,---,0.00,VWS V13.01,2013-02-25 23:37:00,
2013-02-25 18:42:00,38.1,23.8,30.16,NE,54,2.0,5.0,56,0.00,,---,0.00,VWS V13.01,2013-02-25 23:42:00,
2013-02-25 18:47:00,37.9,24.0,30.16,NE,53,1.0,5.0,57,0.00,,---,0.00,VWS V13.01,2013-02-25 23:47:00,
2013-02-25 18:52:00,37.6,24.2,30.16,NE,53,2.0,5.0,58,0.00,,---,0.00,VWS V13.01,2013-02-25 23:52:00,
2013-02-25 18:57:00,37.3,24.3,30.17,NE,53,2.0,5.0,59,0.00,,---,0.00,VWS V13.01,2013-02-25 23:57:00,
2013-02-25 19:02:00,36.9,23.9,30.16,NE,55,2.0,4.0,59,0.00,,---,0.00,VWS V13.01,2013-02-26 00:02:00,
2013-02-25 19:07:00,36.6,24.0,30.16,NE,49,1.0,4.0,60,0.00,,---,0.00,VWS V13.01,2013-02-26 00:07:00,
2013-02-25 19:13:00,36.3,24.1,30.17,NE,52,2.0,4.0,61,0.00,,---,0.00,VWS V13.01,2013-02-26 00:13:00,
2013-02-25 19:18:00,36.1,24.0,30.17,NE,52,0.0,4.0,61,0.00,,---,0.00,VWS V13.01,2013-02-26 00:18:00,
2013-02-25 19:23:00,35.7,23.6,30.16,NE,52,0.0,4.0,61,0.00,,---,0.00,VWS V13.01,2013-02-26 00:23:00,
2013-02-25 19:28:00,35.4,23.7,30.16,NE,52,0.0,4.0,62,0.00,,---,0.00,VWS V13.01,2013-02-26 00:28:00,
2013-02-25 19:33:00,35.2,23.9,30.16,NE,52,0.0,1.0,63,0.00,,---,0.00,VWS V13.01,2013-02-26 00:33:00,
2013-02-25 19:38:00,34.8,23.5,30.16,NE,52,0.0,1.0,63,0.00,,---,0.00,VWS V13.01,2013-02-26 00:38:00,
2013-02-25 19:43:00,34.4,23.9,30.16,NE,52,0.0,2.0,65,0.00,,---,0.00,VWS V13.01,2013-02-26 00:43:00,
2013-02-25 19:48:00,34.0,23.5,30.16,ENE,78,0.0,3.0,65,0.00,,---,0.00,VWS V13.01,2013-02-26 00:48:00,
2013-02-25 19:53:00,33.8,22.9,30.16,East,88,1.0,3.0,64,0.00,,---,0.00,VWS V13.01,2013-02-26 00:53:00,
2013-02-25 19:58:00,33.8,22.5,30.16,East,88,0.0,3.0,63,0.00,,---,0.00,VWS V13.01,2013-02-26 00:58:00,
2013-02-25 20:03:00,33.6,22.4,30.16,East,88,0.0,0.0,63,0.00,,---,0.00,VWS V13.01,2013-02-26 01:03:00,
2013-02-25 20:08:00,33.4,22.5,30.16,East,88,0.0,0.0,64,0.00,,---,0.00,VWS V13.01,2013-02-26 01:08:00,
2013-02-25 20:13:00,33.2,22.7,30.16,East,88,0.0,1.0,65,0.00,,---,0.00,VWS V13.01,2013-02-26 01:13:00,
2013-02-25 20:18:00,33.0,22.5,30.16,East,88,0.0,1.0,65,0.00,,---,0.00,VWS V13.01,2013-02-26 01:18:00,
2013-02-25 20:23:00,32.9,22.4,30.16,East,88,0.0,1.0,65,0.00,,---,0.00,VWS V13.01,2013-02-26 01:23:00,
2013-02-25 20:28:00,32.7,22.2,30.16,East,88,0.0,1.0,65,0.00,,---,0.00,VWS V13.01,2013-02-26 01:28:00,
2013-02-25 20:33:00,32.6,21.8,30.15,ESE,123,3.0,3.0,64,0.00,,---,0.00,VWS V13.01,2013-02-26 01:33:00,
2013-02-25 20:38:00,33.1,21.9,30.15,East,86,1.0,6.0,63,0.00,,---,0.00,VWS V13.01,2013-02-26 01:38:00,
2013-02-25 20:43:00,33.8,22.2,30.15,East,82,0.0,6.0,62,0.00,,---,0.00,VWS V13.01,2013-02-26 01:43:00,
2013-02-25 20:48:00,34.2,22.2,30.15,East,94,0.0,6.0,61,0.00,,---,0.00,VWS V13.01,2013-02-26 01:48:00,
2013-02-25 20:53:00,34.6,22.2,30.15,SE,126,0.0,6.0,60,0.00,,---,0.00,VWS V13.01,2013-02-26 01:53:00,
2013-02-25 20:58:00,35.0,22.1,30.16,ESE,113,3.0,6.0,59,0.00,,---,0.00,VWS V13.01,2013-02-26 01:58:00,
2013-02-25 21:03:00,35.4,22.1,30.16,ESE,117,0.0,1.0,58,0.00,,---,0.00,VWS V13.01,2013-02-26 02:03:00,
2013-02-25 21:08:00,35.5,22.6,30.16,ESE,108,1.0,2.0,59,0.00,,---,0.00,VWS V13.01,2013-02-26 02:08:00,
2013-02-25 21:13:00,35.2,22.3,30.15,East,101,0.0,2.0,59,0.00,,---,0.00,VWS V13.01,2013-02-26 02:13:00,
2013-02-25 21:18:00,35.0,22.1,30.15,ENE,71,0.0,7.0,59,0.00,,---,0.00,VWS V13.01,2013-02-26 02:18:00,
2013-02-25 21:23:00,34.9,22.0,30.15,ENE,70,0.0,7.0,59,0.00,,---,0.00,VWS V13.01,2013-02-26 02:23:00,
2013-02-25 21:28:00,34.7,22.2,30.14,NE,54,2.0,7.0,60,0.00,,---,0.00,VWS V13.01,2013-02-26 02:28:00,
2013-02-25 21:33:00,34.4,22.0,30.14,NE,46,4.0,4.0,60,0.00,,---,0.00,VWS V13.01,2013-02-26 02:33:00,
2013-02-25 21:38:00,34.3,21.9,30.14,East,83,0.0,4.0,60,0.00,,---,0.00,VWS V13.01,2013-02-26 02:38:00,
2013-02-25 21:43:00,34.4,22.0,30.14,East,100,3.0,6.0,60,0.00,,---,0.00,VWS V13.01,2013-02-26 02:43:00,
2013-02-25 21:48:00,34.7,21.9,30.14,ESE,123,0.0,6.0,59,0.00,,---,0.00,VWS V13.01,2013-02-26 02:48:00,
2013-02-25 21:53:00,35.0,22.1,30.13,ENE,73,4.0,6.0,59,0.00,,---,0.00,VWS V13.01,2013-02-26 02:53:00,
2013-02-25 21:58:00,35.3,22.0,30.12,East,98,3.0,8.0,58,0.00,,---,0.00,VWS V13.01,2013-02-26 02:58:00,
2013-02-25 22:03:00,35.8,22.1,30.12,ENE,61,2.0,6.0,57,0.00,,---,0.00,VWS V13.01,2013-02-26 03:03:00,
2013-02-25 22:08:00,35.9,21.8,30.11,ENE,59,4.0,6.0,56,0.00,,---,0.00,VWS V13.01,2013-02-26 03:08:00,
2013-02-25 22:13:00,35.9,21.8,30.11,NNE,28,7.0,7.0,56,0.00,,---,0.00,VWS V13.01,2013-02-26 03:13:00,
2013-02-25 22:18:00,36.1,21.9,30.10,East,86,5.0,9.0,56,0.00,,---,0.00,VWS V13.01,2013-02-26 03:18:00,
2013-02-25 22:23:00,36.2,21.6,30.09,East,86,3.0,9.0,55,0.00,,---,0.00,VWS V13.01,2013-02-26 03:23:00,
2013-02-25 22:28:00,36.3,21.7,30.09,ESE,112,0.0,9.0,55,0.00,,---,0.00,VWS V13.01,2013-02-26 03:28:00,
2013-02-25 22:33:00,36.3,21.7,30.10,ESE,111,3.0,7.0,55,0.00,,---,0.00,VWS V13.01,2013-02-26 03:33:00,
2013-02-25 22:38:00,36.4,21.8,30.10,East,90,1.0,8.0,55,0.00,,---,0.00,VWS V13.01,2013-02-26 03:38:00,
2013-02-25 22:43:00,36.3,21.7,30.09,ESE,110,2.0,8.0,55,0.00,,---,0.00,VWS V13.01,2013-02-26 03:43:00,
2013-02-25 22:48:00,36.2,21.6,30.09,SE,130,0.0,8.0,55,0.00,,---,0.00,VWS V13.01,2013-02-26 03:48:00,
2013-02-25 22:53:00,36.4,21.8,30.09,SE,144,3.0,10.0,55,0.00,,---,0.00,VWS V13.01,2013-02-26 03:53:00,
2013-02-25 22:58:00,36.6,22.0,30.11,East,87,5.0,14.0,55,0.00,,---,0.00,VWS V13.01,2013-02-26 03:58:00,
2013-02-25 23:03:00,36.7,22.1,30.10,ESE,104,3.0,8.0,55,0.00,,---,0.00,VWS V13.01,2013-02-26 04:03:00,
2013-02-25 23:08:00,36.7,22.1,30.11,SSE,148,5.0,12.0,55,0.00,,---,0.00,VWS V13.01,2013-02-26 04:08:00,
2013-02-25 23:13:00,36.9,21.8,30.11,SE,132,0.0,12.0,54,0.00,,---,0.00,VWS V13.01,2013-02-26 04:13:00,
2013-02-25 23:18:00,37.0,21.9,30.12,SSE,152,4.0,14.0,54,0.00,,---,0.00,VWS V13.01,2013-02-26 04:18:00,
2013-02-25 23:23:00,37.1,22.0,30.12,SE,133,7.0,14.0,54,0.00,,---,0.00,VWS V13.01,2013-02-26 04:23:00,
2013-02-25 23:28:00,37.1,21.6,30.12,SSW,200,3.0,14.0,53,0.00,,---,0.00,VWS V13.01,2013-02-26 04:28:00,
2013-02-25 23:33:00,37.1,22.0,30.12,South,190,5.0,8.0,54,0.00,,---,0.00,VWS V13.01,2013-02-26 04:33:00,
2013-02-25 23:38:00,36.9,21.8,30.12,SE,141,0.0,8.0,54,0.00,,---,0.00,VWS V13.01,2013-02-26 04:38:00,
2013-02-25 23:43:00,36.8,21.7,30.11,SE,138,4.0,10.0,54,0.00,,---,0.00,VWS V13.01,2013-02-26 04:43:00,
2013-02-25 23:48:00,36.7,21.6,30.12,SE,131,3.0,11.0,54,0.00,,---,0.00,VWS V13.01,2013-02-26 04:48:00,
2013-02-25 23:53:00,36.7,21.6,30.11,South,186,4.0,13.0,54,0.00,,---,0.00,VWS V13.01,2013-02-26 04:53:00,
2013-02-25 23:58:00,36.7,22.1,30.11,SSE,154,3.0,13.0,55,0.00,,---,0.00,VWS V13.01,2013-02-26 04:58:00,